Regional Weather Roundup
Issued by NWS

Home | Current Version | Previous Version | Graphics & Text | Print | Product List | Glossary On
Versions: 1 2 3 4 5 6 7 8 9 10 11 12 13 14 15 16 17 18 19 20 21 22 23 24 25 26 27 28 29 30 31 32 33 34 35 36 37 38 39 40 41 42 43 44 45 46 47 48 49 50
000
ASUS43 KLSX 210307
RWRMO

WEATHER SUMMARY FOR MISSOURI
NATIONAL WEATHER SERVICE SPRINGFIELD MO
1000 PM CDT SAT SEP 20 2014

NOTE: "FAIR" INDICATES FEW OR NO CLOUDS BELOW 12,000 FEET WITH NO
       SIGNIFICANT WEATHER AND/OR OBSTRUCTIONS TO VISIBILITY.
       CURRENT SKY AND/OR WEATHER CONDITIONS ARE NOT AVAILABLE FOR
       CHILLICOTHE AND FARMINGTON.

MOZ001>031-035>038-043-044-053-054-210400-
...NORTHERN AND WESTERN MISSOURI...

CITY           SKY/WX    TMP DP  RH WIND       PRES   REMARKS
KANSAS CTY INT CLEAR     71  68  90 W6        29.98R
KANSAS C DTWN  CLOUDY    76  70  82 CALM      29.97R
LEE`S SUMMIT   CLOUDY    74  70  87 CALM      29.99R
ST JOSEPH      CLEAR     68  66  93 CALM      29.97R
CHILLICOTHE      N/A     75  70  84 VRB3      29.95R
KIRKSVILLE     CLEAR     72  70  93 W5        29.92S

$$
MOZ066>068-077>081-088>096-101>105-210400-
...SOUTHWEST MISSOURI...

CITY           SKY/WX    TMP DP  RH WIND       PRES   REMARKS
SPRINGFIELD    MOCLDY    72  68  87 SW7       30.00S
JOPLIN         CLOUDY    76  69  79 S7        30.00S

$$
MOZ032>034-039>042-045>050-055>058-069>072-210400-
...CENTRAL MISSOURI...

CITY           SKY/WX    TMP DP  RH WIND       PRES   REMARKS
COLUMBIA       PTCLDY    73  70  90 SW8       29.95S
JEFFERSON CITY CLEAR     72  69  90 CALM      29.94S
ROLLA          CLEAR     70  67  90 SW7       29.97S
SEDALIA        PTCLDY    74  70  87 SW8       29.96S FOG
WHITEMAN AFB   CLEAR     74  70  89 SW7       29.96R
OSAGE BEACH    CLEAR     72  68  88 CALM      29.98R

$$
MOZ051-052-059>065-210400-
...EAST CENTRAL MISSOURI...

CITY           SKY/WX    TMP DP  RH WIND       PRES   REMARKS
ST LOUIS INTL  CLEAR     78  67  68 SW7       29.93S
SPIRIT OF STL  CLEAR     69  66  90 W3        29.92S
ST CHARLES     CLEAR     68  66  93 CALM      29.91R

$$
MOZ072>076-082>087-097>100-106>115-210400-
...SOUTH CENTRAL AND SOUTHEAST MISSOURI...

CITY           SKY/WX    TMP DP  RH WIND       PRES   REMARKS
CAPE GIRARDEAU CLEAR     71  66  84 CALM      29.97S
FARMINGTON     CLEAR     72  66  83 CALM      30.00S
POPLAR BLUFF   CLEAR     70  65  84 SW3       29.98R
WEST PLAINS    CLEAR     74  67  78 SW6       30.04R

$$



USA.gov is the U.S. government's official web portal to all federal, state and local government web resources and services.